SIA37 KLAX-WSSS

Flight info

Callsign SIA37
Flight time N/A
Altitude 34000
Route SUMMR2 MCKEY DCT LIBBO DCT BRINY DCT ALCOA DCT CEPAS DCT 39N130W 40N140W 38N150W/N0492F360 35N160W 32N170W/N0496F380 27N180E 22N170E 19N160E/N0485F400 16N150E DCT UNZ DCT JOBSS DCT ISGOG DCT ZAM A341 VIMAG/N0481F430 A341 VJN M646 TOMAN
Aircraft A359/H-SDE2E3GHIJ3J4J5LM1ORWXY/LB1D1

Departure

Time 2026-04-21 06:34
Airport Los Angeles International Airport (KLAX)

Arrival

Time N/A
Airport Singapore Changi Airport (WSSS)
Time Latitude Longitude Altitude Speed Heading
2026-04-21 05:50 33.94461 -118.41135 99 ft 0 kts 84°
2026-04-21 06:22 33.94458 -118.41158 99 ft 4 kts 84°
2026-04-21 06:22 33.94456 -118.41190 100 ft 4 kts 84°
2026-04-21 06:22 33.94453 -118.41217 99 ft 4 kts 77°
2026-04-21 06:23 33.94442 -118.41240 99 ft 4 kts 21°
2026-04-21 06:23 33.94418 -118.41243 99 ft 4 kts 353°
2026-04-21 06:23 33.94391 -118.41239 99 ft 3 kts 353°
2026-04-21 06:23 33.94388 -118.41239 99 ft 0 kts 353°
2026-04-21 06:26 33.94404 -118.41241 102 ft 6 kts 353°
2026-04-21 06:27 33.94464 -118.41250 100 ft 10 kts 353°
2026-04-21 06:27 33.94536 -118.41261 100 ft 11 kts 353°
2026-04-21 06:27 33.94611 -118.41272 100 ft 11 kts 353°
2026-04-21 06:27 33.94688 -118.41283 103 ft 11 kts 353°
2026-04-21 06:28 33.94764 -118.41287 102 ft 10 kts 15°
2026-04-21 06:28 33.94800 -118.41227 104 ft 9 kts 76°
2026-04-21 06:28 33.94806 -118.41155 102 ft 9 kts 83°
2026-04-21 06:28 33.94816 -118.41054 103 ft 15 kts 83°
2026-04-21 06:29 33.94830 -118.40912 103 ft 18 kts 83°
2026-04-21 06:29 33.94846 -118.40761 102 ft 18 kts 83°
2026-04-21 06:29 33.94862 -118.40609 103 ft 18 kts 83°
2026-04-21 06:29 33.94878 -118.40455 103 ft 19 kts 83°
2026-04-21 06:30 33.94894 -118.40300 102 ft 19 kts 83°
2026-04-21 06:30 33.94910 -118.40144 102 ft 19 kts 83°
2026-04-21 06:30 33.94926 -118.39986 99 ft 19 kts 81°
2026-04-21 06:30 33.94945 -118.39939 101 ft 0 kts 48°
2026-04-21 06:32 33.94949 -118.39935 101 ft 3 kts 44°
2026-04-21 06:32 33.94993 -118.39916 103 ft 10 kts 360°
2026-04-21 06:32 33.95039 -118.39978 101 ft 12 kts 275°
2026-04-21 06:33 33.95026 -118.40114 102 ft 29 kts 263°
2026-04-21 06:33 33.94975 -118.40601 106 ft 90 kts 263°
2026-04-21 06:33 33.94871 -118.41623 103 ft 154 kts 263°
2026-04-21 06:33 33.94718 -118.43065 458 ft 181 kts 262°
2026-04-21 06:34 33.94541 -118.44604 1179 ft 191 kts 262°
2026-04-21 06:34 33.94362 -118.46292 1642 ft 214 kts 263°
2026-04-21 06:34 33.94236 -118.48149 1857 ft 231 kts 268°
2026-04-21 06:34 33.94197 -118.50118 2132 ft 244 kts 269°
2026-04-21 06:35 33.94139 -118.52196 2541 ft 252 kts 266°
2026-04-21 06:35 33.93983 -118.54326 2975 ft 258 kts 264°
2026-04-21 06:35 33.93803 -118.56497 3490 ft 262 kts 264°
2026-04-21 06:35 33.93624 -118.58688 4010 ft 263 kts 263°
2026-04-21 06:36 33.93448 -118.60881 4564 ft 263 kts 263°
2026-04-21 06:36 33.93273 -118.63079 5103 ft 264 kts 263°
2026-04-21 06:36 33.93100 -118.65287 5636 ft 265 kts 263°
2026-04-21 06:36 33.92930 -118.67505 6152 ft 266 kts 262°
2026-04-21 06:37 33.92755 -118.69731 6650 ft 268 kts 262°
2026-04-21 06:37 33.92580 -118.71976 7124 ft 270 kts 261°
2026-04-21 06:37 33.92406 -118.74202 7612 ft 271 kts 261°
2026-04-21 06:37 33.92226 -118.76493 8102 ft 272 kts 261°
2026-04-21 06:38 33.92050 -118.78742 8604 ft 273 kts 261°
2026-04-21 06:38 33.91871 -118.81026 9111 ft 275 kts 260°
2026-04-21 06:38 33.91730 -118.83330 9600 ft 278 kts 264°
2026-04-21 06:38 33.91754 -118.85668 10093 ft 281 kts 267°
2026-04-21 06:39 33.91825 -118.88069 10333 ft 292 kts 267°
2026-04-21 06:39 33.91901 -118.90560 10542 ft 303 kts 267°
2026-04-21 06:39 33.91979 -118.93145 10748 ft 315 kts 267°
2026-04-21 06:39 33.92059 -118.95826 10954 ft 325 kts 268°
2026-04-21 06:40 33.92142 -118.98598 11158 ft 336 kts 268°
2026-04-21 06:40 33.92460 -119.01454 11340 ft 353 kts 281°
2026-04-21 06:40 33.93477 -119.04179 11525 ft 370 kts 296°
2026-04-21 06:40 33.94862 -119.06885 11743 ft 379 kts 298°
2026-04-21 06:41 33.96268 -119.09553 12081 ft 383 kts 297°
2026-04-21 06:41 33.97695 -119.12277 12477 ft 385 kts 297°
2026-04-21 06:41 33.99123 -119.15020 12861 ft 388 kts 297°
2026-04-21 06:41 34.00640 -119.17736 13217 ft 394 kts 304°
2026-04-21 06:42 34.02637 -119.20061 13607 ft 404 kts 317°
2026-04-21 06:42 34.04919 -119.22075 13933 ft 409 kts 320°
2026-04-21 06:42 34.07260 -119.24062 14244 ft 412 kts 320°
2026-04-21 06:42 34.09612 -119.26060 14591 ft 414 kts 320°
2026-04-21 06:43 34.11935 -119.28045 14914 ft 416 kts 320°
2026-04-21 06:43 34.14298 -119.30072 15251 ft 418 kts 320°
2026-04-21 06:43 34.16671 -119.32111 15597 ft 420 kts 320°
2026-04-21 06:43 34.19056 -119.34166 15922 ft 422 kts 320°
2026-04-21 06:44 34.21453 -119.36232 16290 ft 423 kts 320°
2026-04-21 06:44 34.23854 -119.38304 16560 ft 427 kts 320°
2026-04-21 06:44 34.26280 -119.40400 16858 ft 429 kts 320°
2026-04-21 06:44 34.28713 -119.42503 17206 ft 431 kts 320°
2026-04-21 06:45 34.31161 -119.44621 17529 ft 433 kts 320°
2026-04-21 06:45 34.33616 -119.46746 17851 ft 435 kts 320°
2026-04-21 06:45 34.36080 -119.48881 18158 ft 437 kts 320°
2026-04-21 06:45 34.37724 -119.50306 18356 ft 438 kts 320°
2026-04-21 06:46 34.40934 -119.53298 18713 ft 437 kts 312°
2026-04-21 06:46 34.43029 -119.55939 19003 ft 434 kts 306°
2026-04-21 06:46 34.44997 -119.58705 19325 ft 434 kts 305°
2026-04-21 06:46 34.46321 -119.60589 19533 ft 434 kts 304°
2026-04-21 06:47 34.48294 -119.63399 19868 ft 434 kts 305°
2026-04-21 06:47 34.50223 -119.66145 20141 ft 434 kts 305°
2026-04-21 06:47 34.52188 -119.68935 20416 ft 435 kts 305°
2026-04-21 06:47 34.54159 -119.71735 20673 ft 437 kts 305°
2026-04-21 06:48 34.56130 -119.74545 20939 ft 438 kts 305°
2026-04-21 06:48 34.58108 -119.77365 21240 ft 439 kts 305°
2026-04-21 06:48 34.60091 -119.80192 21539 ft 440 kts 305°
2026-04-21 06:48 34.62073 -119.83020 21877 ft 440 kts 305°
2026-04-21 06:49 34.64062 -119.85860 22150 ft 441 kts 304°
2026-04-21 06:49 34.66049 -119.88700 22441 ft 442 kts 304°
2026-04-21 06:49 34.68043 -119.91552 22722 ft 443 kts 304°
2026-04-21 06:49 34.70041 -119.94411 23046 ft 444 kts 304°
2026-04-21 06:50 34.72019 -119.97244 23367 ft 445 kts 304°
2026-04-21 06:50 34.74025 -120.00120 23621 ft 448 kts 304°
2026-04-21 06:50 34.76044 -120.03017 23826 ft 450 kts 304°
2026-04-21 06:50 34.78070 -120.05926 24051 ft 451 kts 304°
2026-04-21 06:51 34.80109 -120.08855 24204 ft 454 kts 304°
2026-04-21 06:51 34.82147 -120.11786 24510 ft 453 kts 304°
2026-04-21 06:51 34.84191 -120.14724 24723 ft 454 kts 304°
2026-04-21 06:51 34.86205 -120.17626 24902 ft 455 kts 304°
2026-04-21 06:52 34.88244 -120.20567 25130 ft 456 kts 304°
2026-04-21 06:52 34.90302 -120.23537 25265 ft 460 kts 304°
2026-04-21 06:52 34.92370 -120.26526 25448 ft 462 kts 304°
2026-04-21 06:52 34.94442 -120.29521 25713 ft 462 kts 304°
2026-04-21 06:53 34.96518 -120.32523 25953 ft 463 kts 304°
2026-04-21 06:53 34.98598 -120.35535 26186 ft 465 kts 304°
2026-04-21 06:53 35.00685 -120.38558 26412 ft 466 kts 304°
2026-04-21 06:53 35.02775 -120.41590 26672 ft 468 kts 303°
2026-04-21 06:54 35.04872 -120.44634 26925 ft 469 kts 303°
2026-04-21 06:54 35.06975 -120.47690 27108 ft 472 kts 303°
2026-04-21 06:54 35.09067 -120.50732 27339 ft 473 kts 303°
2026-04-21 06:54 35.11181 -120.53809 27580 ft 474 kts 303°
2026-04-21 06:55 35.13311 -120.56911 27809 ft 476 kts 303°
2026-04-21 06:55 35.15441 -120.60017 28051 ft 477 kts 303°
2026-04-21 06:55 35.17577 -120.63134 28269 ft 479 kts 303°
2026-04-21 06:55 35.19718 -120.66262 28515 ft 480 kts 303°
2026-04-21 06:56 35.21862 -120.69397 28699 ft 482 kts 303°
2026-04-21 06:56 35.24021 -120.72555 28866 ft 484 kts 303°
2026-04-21 06:56 35.26187 -120.75729 29076 ft 486 kts 303°
2026-04-21 06:56 35.28350 -120.78901 29267 ft 487 kts 303°
2026-04-21 06:57 35.30526 -120.82093 29460 ft 488 kts 303°
2026-04-21 06:57 35.32703 -120.85290 29644 ft 489 kts 303°
2026-04-21 06:57 35.34854 -120.88452 29835 ft 490 kts 303°
2026-04-21 06:57 35.37041 -120.91670 30015 ft 492 kts 303°
2026-04-21 06:58 35.39230 -120.94895 30147 ft 493 kts 303°
2026-04-21 06:58 35.41429 -120.98136 30313 ft 495 kts 303°
2026-04-21 06:58 35.43632 -121.01388 30437 ft 496 kts 303°
2026-04-21 06:58 35.45834 -121.04640 30602 ft 497 kts 302°
2026-04-21 06:59 35.48040 -121.07901 30812 ft 496 kts 302°
2026-04-21 06:59 35.50249 -121.11155 31059 ft 495 kts 303°
2026-04-21 06:59 35.52483 -121.14383 31256 ft 496 kts 303°
2026-04-21 06:59 35.54735 -121.17607 31397 ft 497 kts 303°
2026-04-21 07:00 35.56986 -121.20821 31602 ft 496 kts 303°
2026-04-21 07:00 35.59230 -121.24031 31833 ft 494 kts 303°
2026-04-21 07:00 35.61459 -121.27229 32075 ft 493 kts 303°
2026-04-21 07:00 35.63680 -121.30425 32293 ft 491 kts 302°
2026-04-21 07:01 35.65844 -121.33665 32507 ft 486 kts 298°
2026-04-21 07:01 35.67783 -121.37053 32620 ft 484 kts 296°
2026-04-21 07:01 35.71455 -121.44001 32916 ft 482 kts 294°
2026-04-21 07:02 35.73214 -121.47444 33153 ft 481 kts 294°
2026-04-21 07:02 35.74984 -121.50925 33338 ft 479 kts 294°
2026-04-21 07:02 35.76757 -121.54413 33583 ft 478 kts 293°
2026-04-21 07:02 35.78516 -121.57863 33904 ft 474 kts 293°
2026-04-21 07:03 35.80274 -121.61310 34017 ft 476 kts 293°
2026-04-21 07:03 35.82043 -121.64783 33982 ft 480 kts 293°
2026-04-21 07:03 35.85604 -121.71767 33985 ft 481 kts 293°
2026-04-21 07:04 35.89171 -121.78754 33979 ft 481 kts 293°
2026-04-21 07:04 35.92712 -121.85709 33974 ft 480 kts 293°
2026-04-21 07:05 35.96256 -121.92688 33974 ft 481 kts 292°
2026-04-21 07:05 35.99806 -121.99700 33971 ft 481 kts 292°
2026-04-21 07:06 36.03353 -122.06714 33971 ft 481 kts 292°
2026-04-21 07:06 36.06895 -122.13732 33971 ft 480 kts 292°
2026-04-21 07:07 36.10425 -122.20743 33966 ft 480 kts 292°
2026-04-21 07:07 36.13943 -122.27745 33966 ft 480 kts 292°
2026-04-21 07:08 36.17464 -122.34766 33982 ft 480 kts 292°
2026-04-21 07:08 36.20956 -122.41744 33968 ft 480 kts 291°
2026-04-21 07:09 36.24474 -122.48794 33966 ft 482 kts 291°
2026-04-21 07:09 36.28000 -122.55867 33965 ft 482 kts 291°
2026-04-21 07:10 36.31515 -122.62933 33987 ft 482 kts 291°
2026-04-21 07:10 36.35032 -122.70018 33969 ft 482 kts 290°
2026-04-21 07:11 36.38544 -122.77114 33960 ft 483 kts 290°
2026-04-21 07:11 36.42037 -122.84181 33955 ft 483 kts 290°
2026-04-21 07:12 36.45555 -122.91312 33987 ft 483 kts 290°
2026-04-21 07:12 36.49074 -122.98464 33958 ft 485 kts 290°
2026-04-21 07:13 36.52569 -123.05583 33955 ft 485 kts 290°
2026-04-21 07:13 36.56091 -123.12767 33952 ft 485 kts 290°
2026-04-21 07:14 36.59595 -123.19931 33960 ft 485 kts 290°
2026-04-21 07:14 36.63105 -123.27129 33952 ft 487 kts 290°
2026-04-21 07:15 36.66606 -123.34318 33952 ft 487 kts 290°
2026-04-21 07:15 36.70125 -123.41557 33949 ft 487 kts 290°
2026-04-21 07:16 36.73628 -123.48786 33944 ft 489 kts 289°
2026-04-21 07:16 36.77126 -123.56020 33949 ft 490 kts 289°
2026-04-21 07:17 36.80644 -123.63304 33941 ft 490 kts 289°
2026-04-21 07:17 36.84160 -123.70602 33962 ft 490 kts 290°
2026-04-21 07:18 36.87674 -123.77913 33944 ft 491 kts 289°
2026-04-21 07:18 36.91185 -123.85236 33941 ft 491 kts 289°
2026-04-21 07:19 36.94695 -123.92569 33938 ft 491 kts 289°
2026-04-21 07:19 36.98204 -123.99920 33932 ft 493 kts 289°
2026-04-21 07:20 37.01715 -124.07292 33938 ft 493 kts 289°
2026-04-21 07:20 37.05197 -124.14613 33934 ft 493 kts 289°
2026-04-21 07:21 37.08702 -124.22003 33998 ft 494 kts 289°
2026-04-21 07:21 37.12208 -124.29414 33933 ft 494 kts 290°
2026-04-21 07:22 37.15709 -124.36825 33938 ft 494 kts 290°
2026-04-21 07:22 37.19206 -124.44248 33957 ft 494 kts 289°
2026-04-21 07:23 37.22706 -124.51700 33935 ft 496 kts 290°
2026-04-21 07:23 37.26211 -124.59173 33932 ft 496 kts 290°
2026-04-21 07:24 37.29684 -124.66591 33930 ft 496 kts 290°
2026-04-21 07:24 37.33174 -124.74066 33967 ft 496 kts 291°
2026-04-21 07:25 37.36659 -124.81546 33925 ft 494 kts 291°
2026-04-21 07:25 37.40105 -124.88959 33927 ft 494 kts 291°
2026-04-21 07:26 37.43564 -124.96422 33917 ft 494 kts 291°
2026-04-21 07:26 37.47038 -125.03937 33925 ft 496 kts 292°
2026-04-21 07:27 37.50498 -125.11431 33925 ft 495 kts 292°
2026-04-21 07:27 37.53950 -125.18925 33955 ft 495 kts 292°
2026-04-21 07:28 37.57407 -125.26455 33935 ft 498 kts 292°
2026-04-21 07:28 37.60869 -125.34008 33922 ft 497 kts 292°
2026-04-21 07:29 37.64296 -125.41499 33919 ft 496 kts 292°
2026-04-21 07:29 37.67751 -125.49070 33917 ft 498 kts 292°
2026-04-21 07:30 37.71208 -125.56669 33916 ft 498 kts 293°
2026-04-21 07:30 37.74662 -125.64270 33916 ft 498 kts 293°
2026-04-21 07:31 37.78080 -125.71814 33915 ft 499 kts 293°
2026-04-21 07:31 37.81539 -125.79470 33916 ft 500 kts 293°
2026-04-21 07:32 37.84322 -125.87383 33912 ft 489 kts 283°
2026-04-21 07:32 37.86527 -125.95517 33907 ft 488 kts 282°
2026-04-21 07:33 37.88634 -126.03708 33911 ft 490 kts 282°
2026-04-21 07:33 37.90739 -126.11926 33908 ft 490 kts 282°
2026-04-21 07:34 37.92850 -126.20137 33908 ft 490 kts 282°
2026-04-21 07:34 37.94950 -126.28306 33922 ft 490 kts 282°
2026-04-21 07:35 37.97061 -126.36541 33906 ft 491 kts 282°
2026-04-21 07:35 37.99167 -126.44784 33905 ft 491 kts 282°
2026-04-21 07:36 38.01267 -126.53031 33912 ft 491 kts 283°
2026-04-21 07:36 38.03354 -126.61254 33911 ft 490 kts 283°
2026-04-21 07:37 38.05423 -126.69435 33904 ft 490 kts 283°
2026-04-21 07:37 38.07504 -126.77695 33908 ft 490 kts 283°
2026-04-21 07:38 38.09222 -126.84528 33896 ft 488 kts 283°
2026-04-21 07:38 38.11279 -126.92740 33906 ft 489 kts 283°
2026-04-21 07:39 38.13338 -127.00987 33914 ft 490 kts 284°
2026-04-21 07:39 38.15695 -127.09129 33906 ft 491 kts 288°
2026-04-21 07:40 38.18241 -127.17128 33913 ft 490 kts 288°
2026-04-21 07:40 38.20763 -127.25200 33906 ft 491 kts 288°
2026-04-21 07:41 38.23229 -127.33288 33904 ft 489 kts 288°
2026-04-21 07:41 38.25664 -127.41361 33904 ft 488 kts 288°
2026-04-21 07:42 38.28090 -127.49431 33908 ft 488 kts 288°
2026-04-21 07:42 38.30508 -127.57490 33904 ft 486 kts 288°
2026-04-21 07:43 38.32895 -127.65465 33907 ft 485 kts 288°
2026-04-21 07:43 38.35301 -127.73529 33914 ft 485 kts 288°
2026-04-21 07:44 38.37691 -127.81560 33908 ft 486 kts 288°
2026-04-21 07:44 38.40083 -127.89623 33908 ft 485 kts 288°
2026-04-21 07:45 38.42469 -127.97690 33908 ft 485 kts 288°
2026-04-21 07:45 38.44829 -128.05690 33908 ft 485 kts 288°
2026-04-21 07:46 38.47210 -128.13786 33911 ft 484 kts 288°
2026-04-21 07:46 38.49562 -128.21809 33911 ft 484 kts 288°
2026-04-21 07:47 38.51915 -128.29862 33914 ft 484 kts 289°
2026-04-21 07:47 38.54264 -128.37921 33911 ft 484 kts 288°
2026-04-21 07:48 38.56610 -128.45995 33909 ft 484 kts 289°
2026-04-21 07:48 38.58942 -128.54046 33911 ft 482 kts 289°